FW6744 Weather Reports


time (UTC)temp
C
wind
direction
speed
KPH
gust
KPH
rain 1hr
cm
rain 24hr
cm
rain mn
cm
humidity
%
barometer
mb
20260510190923 31 228 1.6 6.4 0.00 0.00 0.00 31 1008.9
20260510190905 31 179 1.6 8.0 0.00 0.00 0.00 31 1009.0
20260510185922 31 51 1.6 9.7 0.00 0.00 0.00 30 1009.2
20260510185421 31 209 1.6 9.7 0.00 0.00 0.00 30 1009.2
20260510185138 31 48 0.0 3.2 0.00 0.00 0.00 33 1009.1
20260510184420 31 11 0.0 3.2 0.00 0.00 0.00 31 1009.1
20260510183923 31 187 0.0 3.2 0.00 0.00 0.00 30 1009.2
20260510183420 31 56 1.6 9.7 0.00 0.00 0.00 31 1009.2
20260510182921 31 358 1.6 9.7 0.00 0.00 0.00 33 1009.3
20260510182421 30 83 1.6 8.0 0.00 0.00 0.00 32 1009.2
20260510181920 30 211 3.2 8.0 0.00 0.00 0.00 31 1009.2
20260510181419 30 348 1.6 8.0 0.00 0.00 0.00 31 1009.3
20260510180919 31 173 1.6 11.3 0.00 0.00 0.00 32 1009.2
20260510180413 31 192 1.6 11.3 0.00 0.00 0.00 32 1009.2
20260510175907 31 176 0.0 4.8 0.00 0.00 0.00 32 1009.2
20260510175401 31 179 0.0 1.6 0.00 0.00 0.00 33 1009.2
20260510174854 31 244 0.0 4.8 0.00 0.00 0.00 32 1009.2
20260510174348 31 43 1.6 4.8 0.00 0.00 0.00 30 1009.3
20260510173844 31 191 1.6 4.8 0.00 0.00 0.00 31 1009.4
20260510173528 31 172 0.0 4.8 0.00 0.00 0.00 33 1009.4
20260510173420 31 200 0.0 4.8 0.00 0.00 0.00 33 1009.5
20260510172324 31 155 0.0 3.2 0.00 0.00 0.00 33 1009.5
20260510171819 31 274 0.0 3.2 0.00 0.00 0.00 33 1009.4
20260510171313 30 160 1.6 3.2 0.00 0.00 0.00 34 1009.6
20260510171025 30 231 0.0 3.2 0.00 0.00 0.00 33 1009.6
20260510170301 30 158 1.6 4.8 0.00 0.00 0.00 33 1009.7
20260510165754 29 148 1.6 8.0 0.00 0.00 0.00 31 1009.8
20260510165249 30 49 1.6 8.0 0.00 0.00 0.00 33 1009.8
20260510165014 30 30 1.6 4.8 0.00 0.00 0.00 33 1009.9
20260510164236 29 214 1.6 4.8 0.00 0.00 0.00 35 1009.9
20260510163957 29 345 1.6 6.4 0.00 0.00 0.00 36 1009.8
20260510163225 28 236 0.0 6.4 0.00 0.00 0.00 36 1009.9
20260510162719 28 117 1.6 6.4 0.00 0.00 0.00 38 1009.8
20260510162213 28 47 1.6 6.4 0.00 0.00 0.00 40 1009.8
20260510161707 28 31 0.0 4.8 0.00 0.00 0.00 39 1009.8
20260510161201 27 152 0.0 6.4 0.00 0.00 0.00 40 1009.9
20260510160655 27 167 0.0 6.4 0.00 0.00 0.00 40 1010.0
20260510160149 27 139 0.0 3.2 0.00 0.00 0.00 43 1010.1
20260510155643 26 206 0.0 3.2 0.00 0.00 0.00 44 1010.1
20260510155133 26 169 0.0 1.6 0.00 0.00 0.00 45 1010.0
20260510154626 26 209 0.0 1.6 0.00 0.00 0.00 47 1010.1
20260510154121 25 29 0.0 3.2 0.00 0.00 0.00 46 1010.2
20260510153615 25 41 1.6 3.2 0.00 0.00 0.00 48 1010.2
20260510153108 25 219 0.0 3.2 0.00 0.00 0.00 46 1010.2
20260510152603 25 217 0.0 4.8 0.00 0.00 0.00 47 1010.2
20260510152057 25 229 0.0 4.8 0.00 0.00 0.00 49 1010.2
20260510151551 24 214 1.6 6.4 0.00 0.00 0.00 49 1010.4
20260510151044 24 210 1.6 6.4 0.00 0.00 0.00 49 1010.4
20260510150800 23 217 0.0 1.6 0.00 0.00 0.00 50 1010.3
20260510150033 23 217 0.0 4.8 0.00 0.00 0.00 49 1010.3
20260510145527 23 218 0.0 4.8 0.00 0.00 0.00 49 1010.5
20260510145022 23 204 0.0 1.6 0.00 0.00 0.00 50 1010.4
20260510144748 23 216 0.0 1.6 0.00 0.00 0.00 54 1010.3
20260510144022 22 216 0.0 1.6 0.00 0.00 0.00 52 1010.3
20260510143522 22 231 0.0 1.6 0.00 0.00 0.00 51 1010.3
20260510143021 22 229 0.0 1.6 0.00 0.00 0.00 53 1010.2
20260510142520 22 90 0.0 1.6 0.00 0.00 0.00 53 1010.2
20260510142019 21 162 0.0 1.6 0.00 0.00 0.00 53 1010.1
20260510141520 21 218 0.0 1.6 0.00 0.00 0.00 54 1010.1
20260510141020 21 219 0.0 1.6 0.00 0.00 0.00 53 1010.2
20260510140517 21 254 0.0 1.6 0.00 0.00 0.00 54 1010.2
20260510140015 21 216 0.0 3.2 0.00 0.00 0.00 52 1010.2
20260510135513 21 73 0.0 4.8 0.00 0.00 0.00 54 1010.1
20260510135012 21 219 0.0 4.8 0.00 0.00 0.00 56 1010.1
20260510134513 20 230 0.0 0.0 0.00 0.00 0.00 58 1010.1
20260510134231 20 142 0.0 0.0 0.00 0.00 0.00 61 1010.1
20260510133509 20 32 0.0 0.0 0.00 0.00 0.00 64 1010.2
20260510133008 20 169 0.0 3.2 0.00 0.00 0.00 64 1010.1
20260510132504 20 174 0.0 3.2 0.00 0.00 0.00 64 1010.1
20260510132005 20 161 0.0 3.2 0.00 0.00 0.00 64 1010.3
20260510131726 19 205 0.0 3.2 0.00 0.00 0.00 66 1010.3
20260510131002 19 121 0.0 4.8 0.00 0.00 0.00 69 1010.4
20260510130455 18 223 0.0 4.8 0.00 0.00 0.00 71 1010.3
20260510125953 18 219 0.0 3.2 0.00 0.00 0.00 72 1010.1
20260510125450 18 221 0.0 3.2 0.00 0.00 0.00 74 1010.0
20260510124949 18 234 0.0 1.6 0.00 0.00 0.00 75 1009.9
20260510124448 17 231 0.0 4.8 0.00 0.00 0.00 77 1009.8
20260510123947 17 163 0.0 4.8 0.00 0.00 0.00 79 1009.9
20260510123447 17 220 0.0 3.2 0.00 0.00 0.00 82 1009.9
20260510122946 16 211 0.0 1.6 0.00 0.00 0.00 84 1009.9
20260510122446 16 217 0.0 1.6 0.00 0.00 0.00 87 1009.9
20260510121944 15 221 0.0 1.6 0.00 0.00 0.00 88 1009.8
20260510121705 15 34 0.0 1.6 0.00 0.00 0.00 91 1009.5
20260510120944 15 141 0.0 1.6 0.00 0.00 0.00 92 1009.5
20260510120712 15 155 0.0 1.6 0.00 0.00 0.00 94 1009.4
20260510115945 14 155 0.0 1.6 0.00 0.00 0.00 95 1009.3
20260510115439 14 11 0.0 1.6 0.00 0.00 0.00 96 1009.3
20260510114940 13 300 0.0 1.6 0.00 0.00 0.00 96 1009.3
20260510114437 13 133 0.0 1.6 0.00 0.00 0.00 96 1009.2
20260510113938 13 132 0.0 1.6 0.00 0.00 0.00 96 1009.2
20260510113434 13 203 0.0 1.6 0.00 0.00 0.00 96 1009.1
20260510113201 12 186 0.0 0.0 0.00 0.00 0.00 96 1009.1
20260510112655 12 186 0.0 0.0 0.00 0.00 0.00 96 1009.0
20260510111934 12 186 0.0 0.0 0.00 0.00 0.00 96 1009.0
20260510111435 12 186 0.0 0.0 0.00 0.00 0.00 95 1008.9
20260510110933 11 186 0.0 0.0 0.00 0.00 0.00 95 1008.8
20260510110433 11 186 0.0 0.0 0.00 0.00 0.00 95 1008.8
20260510110421 11 186 0.0 0.0 0.00 0.00 0.00 95 1008.8
20260510105435 11 186 0.0 0.0 0.00 0.00 0.00 95 1008.8
20260510104930 11 186 0.0 0.0 0.00 0.00 0.00 94 1008.7
20260510104431 11 186 0.0 0.0 0.00 0.00 0.00 94 1008.6
20260510103931 12 186 0.0 0.0 0.00 0.00 0.00 94 1008.5
20260510103431 12 186 0.0 0.0 0.00 0.00 0.00 94 1008.4
20260510102932 12 186 0.0 0.0 0.00 0.00 0.00 94 1008.4
20260510102431 12 186 0.0 0.0 0.00 0.00 0.00 94 1008.3
20260510101931 12 186 0.0 0.0 0.00 0.00 0.00 94 1008.2
20260510101432 12 186 0.0 0.0 0.00 0.00 0.00 94 1008.2
20260510100931 12 186 0.0 0.0 0.00 0.00 0.00 94 1008.1
20260510100427 12 186 0.0 0.0 0.00 0.00 0.00 93 1008.0
20260510095925 12 186 0.0 0.0 0.00 0.00 0.00 93 1007.9
20260510095423 12 186 0.0 0.0 0.00 0.00 0.00 93 1007.9
20260510094924 12 186 0.0 0.0 0.00 0.00 0.00 93 1007.8
20260510094653 12 186 0.0 0.0 0.00 0.00 0.00 94 1007.8
20260510093922 12 186 0.0 0.0 0.00 0.00 0.00 94 1007.9
20260510093421 12 186 0.0 0.0 0.00 0.00 0.00 93 1007.8
20260510092921 12 186 0.0 0.0 0.00 0.00 0.00 93 1007.7
20260510092420 12 186 0.0 0.0 0.00 0.00 0.00 93 1007.7
20260510091922 12 186 0.0 0.0 0.00 0.00 0.00 93 1007.8
20260510091909 13 186 0.0 0.0 0.00 0.00 0.00 93 1007.7
20260510091538 13 186 0.0 0.0 0.00 0.00 0.00 92 1007.6
20260510090419 13 186 0.0 0.0 0.00 0.00 0.00 93 1007.5
20260510085919 13 186 0.0 0.0 0.00 0.00 0.00 93 1007.4
20260510085415 13 186 0.0 0.0 0.00 0.00 0.00 92 1007.3
20260510084914 13 186 0.0 0.0 0.00 0.00 0.00 91 1007.3
20260510084414 13 186 0.0 0.0 0.00 0.00 0.00 91 1007.4
20260510083908 13 186 0.0 0.0 0.00 0.00 0.00 91 1007.3
20260510083637 13 186 0.0 0.0 0.00 0.00 0.00 91 1007.3
20260510082856 13 186 0.0 0.0 0.00 0.00 0.00 91 1007.3
20260510082838 13 186 0.0 0.0 0.00 0.00 0.00 91 1007.3
20260510081844 14 186 0.0 0.0 0.00 0.00 0.00 91 1007.3
20260510081338 14 186 0.0 0.0 0.00 0.00 0.00 91 1007.2
20260510081051 14 186 0.0 0.0 0.00 0.00 0.00 90 1007.1
20260510080326 14 186 0.0 0.0 0.00 0.00 0.00 90 1007.1
20260510075820 15 186 0.0 0.0 0.00 0.00 0.00 90 1007.2
20260510075314 15 186 0.0 0.0 0.00 0.00 0.00 90 1007.1
20260510074808 15 186 0.0 0.0 0.00 0.00 0.00 89 1007.1
20260510074302 15 186 0.0 0.0 0.00 0.00 0.00 89 1007.1
20260510073755 15 186 0.0 0.0 0.00 0.00 0.00 89 1007.1
20260510073732 15 186 0.0 0.0 0.00 0.00 0.00 88 1007.1
20260510072745 16 186 0.0 0.0 0.00 0.00 0.00 87 1007.1
20260510072237 16 186 0.0 0.0 0.00 0.00 0.00 87 1007.0
20260510071731 16 186 0.0 0.0 0.00 0.00 0.00 86 1007.0
20260510071225 16 186 0.0 0.0 0.00 0.00 0.00 86 1007.0
20260510070720 16 186 0.0 0.0 0.00 0.00 0.00 85 1007.0
20260510070213 16 186 0.0 0.0 0.00 0.00 0.00 85 1007.0
20260510065709 17 186 0.0 0.0 0.00 0.00 0.00 84 1007.0
20260510065647 17 186 0.0 0.0 0.00 0.00 0.00 84 1007.1
20260510064657 17 186 0.0 0.0 0.00 0.00 0.00 84 1007.1
20260510064151 17 186 0.0 1.6 0.00 0.00 0.00 84 1007.1
20260510063644 17 184 0.0 1.6 0.00 0.00 0.00 83 1007.1
20260510063138 17 42 0.0 3.2 0.00 0.00 0.00 83 1007.1
20260510062848 18 204 0.0 3.2 0.00 0.00 0.00 82 1007.0
20260510062126 18 303 0.0 6.4 0.00 0.00 0.00 82 1006.9
20260510061620 18 299 1.6 6.4 0.00 0.00 0.00 82 1007.0
20260510061114 18 185 0.0 6.4 0.00 0.00 0.00 81 1007.0
20260510060608 18 181 0.0 3.2 0.00 0.00 0.00 81 1007.0
20260510055556 18 215 1.6 8.0 0.00 0.00 0.00 80 1006.8
20260510055050 18 10 1.6 6.4 0.00 0.00 0.00 80 1006.9
20260510054544 18 203 1.6 8.0 0.00 0.00 0.00 80 1007.0
20260510054039 19 233 1.6 8.0 0.00 0.00 0.00 79 1006.9
20260510053532 19 198 1.6 6.4 0.00 0.00 0.00 79 1007.0
20260510053026 19 253 1.6 6.4 0.00 0.00 0.00 79 1006.9
20260510052520 19 192 1.6 4.8 0.00 0.00 0.00 79 1006.9
20260510052241 19 136 1.6 6.4 0.00 0.00 0.00 79 1006.9
20260510051507 19 235 0.0 6.4 0.00 0.00 0.00 79 1007.0
20260510051003 19 239 0.0 3.2 0.00 0.00 0.00 78 1006.9
20260510050457 19 61 0.0 4.8 0.00 0.00 0.00 78 1007.0
20260510050208 19 201 0.0 4.8 0.00 0.00 0.00 78 1007.0
20260510045444 19 210 0.0 3.2 0.00 0.00 0.00 78 1006.9
20260510044938 19 240 0.0 3.2 0.00 0.00 0.00 78 1007.0
20260510044432 19 250 0.0 3.2 0.00 0.00 0.00 78 1007.0
20260510043926 19 298 0.0 1.6 0.00 0.00 0.00 78 1007.0
20260510043420 19 229 0.0 1.6 0.00 0.00 0.00 77 1007.0
20260510042914 19 267 0.0 3.2 0.00 0.00 0.00 77 1007.0
20260510042628 19 29 0.0 3.2 0.00 0.00 0.00 77 1007.0
20260510041903 19 139 0.0 3.2 0.00 0.00 0.00 77 1007.0
20260510041625 19 245 0.0 3.2 0.00 0.00 0.00 77 1007.0
20260510040850 19 292 0.0 6.4 0.00 0.00 0.00 76 1007.0
20260510040344 19 220 0.0 4.8 0.00 0.00 0.00 76 1006.9
20260510035838 19 148 0.0 1.6 0.00 0.00 0.00 76 1006.9
20260510035332 19 18 0.0 1.6 0.00 0.00 0.00 76 1006.8
20260510034826 19 13 0.0 4.8 0.00 0.00 0.00 76 1006.8
20260510034320 19 350 0.0 4.8 0.00 0.00 0.00 76 1006.8
20260510033814 18 177 0.0 0.0 0.00 0.00 0.00 76 1006.8
20260510033308 18 178 0.0 0.0 0.00 0.00 0.00 76 1006.8
20260510032802 18 178 0.0 0.0 0.00 0.00 0.00 75 1006.8
20260510032256 18 178 0.0 1.6 0.00 0.00 0.00 75 1006.7
20260510031750 18 178 0.0 1.6 0.00 0.00 0.00 76 1006.7
20260510031244 18 129 0.0 1.6 0.00 0.00 0.00 75 1006.7
20260510030738 18 124 0.0 1.6 0.00 0.00 0.00 75 1006.6
20260510030232 18 125 0.0 1.6 0.00 0.00 0.00 75 1006.7
20260510025726 18 134 0.0 0.0 0.00 0.00 0.00 75 1006.6
20260510025220 18 134 0.0 0.0 0.00 0.00 0.00 75 1006.5
20260510024714 18 134 0.0 0.0 0.00 0.00 0.00 75 1006.5
20260510024207 18 75 0.0 0.0 0.00 0.00 0.00 74 1006.5
20260510023702 18 75 0.0 1.6 0.00 0.00 0.00 74 1006.5
20260510023156 18 75 0.0 1.6 0.00 0.00 0.00 74 1006.4
20260510022651 18 75 0.0 0.0 0.00 0.00 0.00 74 1006.3
20260510022144 18 75 0.0 0.0 0.00 0.00 0.00 74 1006.3
20260510021857 18 75 0.0 0.0 0.00 0.00 0.00 74 1006.2
20260510021610 18 75 0.0 0.0 0.00 0.00 0.00 74 1006.2
20260510020625 18 74 0.0 0.0 0.00 0.00 0.00 74 1006.1
20260510020120 18 74 0.0 0.0 0.00 0.00 0.00 74 1006.0
20260510015614 18 74 0.0 0.0 0.00 0.00 0.00 73 1005.9
20260510015108 18 74 0.0 0.0 0.00 0.00 0.00 73 1005.9
20260510014602 18 74 0.0 0.0 0.00 0.00 0.00 73 1005.8
20260510014317 18 74 0.0 0.0 0.00 0.00 0.00 73 1005.7
20260510013810 17 74 0.0 0.0 0.00 0.00 0.00 73 1005.8
20260510013044 17 74 0.0 0.0 0.00 0.00 0.00 72 1005.8
20260510012757 18 74 0.0 0.0 0.00 0.00 0.00 70 1005.7
20260510012033 18 74 0.0 0.0 0.00 0.00 0.00 70 1005.6
20260510011526 18 74 0.0 0.0 0.00 0.00 0.00 69 1005.6
20260510011020 18 74 0.0 0.0 0.00 0.00 0.00 68 1005.5
20260510010731 18 74 0.0 0.0 0.00 0.00 0.00 68 1005.5
20260510010007 18 74 0.0 0.0 0.00 0.00 0.00 67 1005.5
20260510005502 19 74 0.0 0.0 0.00 0.00 0.00 66 1005.4
20260510004956 19 74 0.0 0.0 0.00 0.00 0.00 66 1005.3
20260510004450 19 74 0.0 0.0 0.00 0.00 0.00 66 1005.2
20260510003944 20 74 0.0 0.0 0.00 0.00 0.00 64 1005.2
20260510003708 20 74 0.0 0.0 0.00 0.00 0.00 63 1005.1
20260510002932 20 74 0.0 0.0 0.00 0.00 0.00 62 1005.1
20260510002910 20 74 0.0 0.0 0.00 0.00 0.00 62 1005.0
20260510001926 21 74 0.0 0.0 0.00 0.00 0.00 61 1004.9
20260510001651 21 74 0.0 0.0 0.00 0.00 0.00 59 1005.0
20260510000926 21 74 0.0 0.0 0.00 0.00 0.00 59 1004.9
20260510000425 22 74 0.0 0.0 0.00 0.00 0.00 58 1004.7
20260509235926 22 74 0.0 1.6 0.00 0.00 0.00 58 1004.7
20260509235425 22 74 0.0 1.6 0.00 0.00 0.00 56 1004.8
20260509234926 22 76 0.0 0.0 0.00 0.00 0.00 56 1004.7
20260509234640 23 76 0.0 0.0 0.00 0.00 0.00 54 1004.6
20260509233925 23 76 0.0 0.0 0.00 0.00 0.00 53 1004.6
20260509233423 23 76 0.0 1.6 0.00 0.00 0.00 53 1004.7
20260509232923 23 76 0.0 1.6 0.00 0.00 0.00 52 1004.6
20260509232424 23 49 0.0 3.2 0.00 0.00 0.00 51 1004.7
20260509231922 23 46 0.0 3.2 0.00 0.00 0.00 51 1004.7
20260509231418 23 173 0.0 1.6 0.00 0.00 0.00 51 1004.7
20260509230918 24 223 0.0 1.6 0.00 0.00 0.00 51 1004.7
20260509230416 24 164 0.0 4.8 0.00 0.00 0.00 51 1004.7
20260509225919 24 146 0.0 4.8 0.00 0.00 0.00 50 1004.7
20260509225421 24 226 0.0 1.6 0.00 0.00 0.00 52 1004.6
20260509224915 24 229 1.6 6.4 0.00 0.00 0.00 51 1004.5
20260509224413 24 226 1.6 6.4 0.00 0.00 0.00 51 1004.5
20260509223914 25 39 0.0 6.4 0.00 0.00 0.00 51 1004.6
20260509223412 25 69 0.0 6.4 0.00 0.00 0.00 49 1004.5
20260509223139 25 35 0.0 3.2 0.00 0.00 0.00 49 1004.5
20260509222630 25 212 0.0 6.4 0.00 0.00 0.00 50 1004.5
20260509221908 25 112 0.0 6.4 0.00 0.00 0.00 51 1004.6
20260509221409 25 197 0.0 3.2 0.00 0.00 0.00 51 1004.7
20260509221132 25 78 1.6 4.8 0.00 0.00 0.00 51 1004.6
20260509220410 25 326 1.6 8.0 0.00 0.00 0.00 50 1004.6
20260509215911 25 264 0.0 8.0 0.00 0.00 0.00 51 1004.6
20260509215410 25 141 0.0 0.0 0.00 0.00 0.00 51 1004.5
20260509215131 24 172 0.0 1.6 0.00 0.00 0.00 52 1004.6
20260509214409 24 48 0.0 1.6 0.00 0.00 0.00 51 1004.5
20260509213906 25 283 0.0 1.6 0.00 0.00 0.00 51 1004.4
20260509213629 25 51 0.0 3.2 0.00 0.00 0.00 50 1004.4
20260509213128 25 133 0.0 3.2 0.00 0.00 0.00 49 1004.4
20260509212404 25 214 1.6 6.4 0.00 0.00 0.00 49 1004.5
20260509212125 25 196 1.6 6.4 0.00 0.00 0.00 47 1004.3
20260509211353 26 161 0.0 3.2 0.00 0.00 0.00 47 1004.4
20260509210850 26 21 0.0 3.2 0.00 0.00 0.00 48 1004.3
20260509210348 25 150 0.0 0.0 0.00 0.00 0.00 50 1004.4
20260509205851 25 75 0.0 0.0 0.00 0.00 0.00 48 1004.4
20260509205348 25 154 0.0 3.2 0.00 0.00 0.00 48 1004.4
20260509204851 26 174 1.6 4.8 0.00 0.00 0.00 47 1004.3
20260509204350 26 61 0.0 4.8 0.00 0.00 0.00 48 1004.3
20260509203849 26 150 0.0 1.6 0.00 0.00 0.00 45 1004.2
20260509203348 27 199 0.0 6.4 0.00 0.00 0.00 45 1004.0
20260509203111 27 67 0.0 6.4 0.00 0.00 0.00 45 1004.0
20260509202346 27 145 0.0 6.4 0.00 0.00 0.00 47 1004.0
20260509201846 26 155 1.6 6.4 0.00 0.00 0.00 47 1004.1
20260509201345 26 113 1.6 8.0 0.00 0.00 0.00 46 1004.3
20260509200845 26 207 1.6 9.7 0.00 0.00 0.00 47 1004.3
20260509200346 26 229 1.6 9.7 0.00 0.00 0.00 46 1004.3
20260509195845 26 203 1.6 6.4 0.00 0.00 0.00 47 1004.4
20260509195827 26 302 1.6 6.4 0.00 0.00 0.00 49 1004.5
20260509194845 25 148 0.0 3.2 0.00 0.00 0.00 50 1004.7
20260509194345 24 152 0.0 3.2 0.00 0.00 0.00 49 1004.7
20260509193846 24 227 1.6 6.4 0.00 0.00 0.00 49 1004.8
20260509193604 25 145 1.6 6.4 0.00 0.00 0.00 47 1004.8
20260509192844 25 64 1.6 9.7 0.00 0.00 0.00 47 1004.8
20260509192611 26 52 1.6 9.7 0.00 0.00 0.00 46 1004.8
20260509191845 26 165 1.6 9.7 0.00 0.00 0.00 46 1004.8
20260509191342 25 157 1.6 11.3 0.00 0.00 0.00 46 1004.9